This is the latest recevied weather packets stored in our database for station/object KC4GS-13. If no packets are shown the sender has not sent any weather packets the latest 10 day(s).
| Time | Temp. | Humidity | Pressure | Rain* | Wind** | Luminosity | Snow |
|---|---|---|---|---|---|---|---|
| 1788393402 | 31.67° C | 63% | 1017.6 hPa | 0 mm | - | 0 W/m² | - |
| 1788393092 | 31.67° C | 61% | 1017.5 hPa | 0 mm | - | 2 W/m² | - |
| 1788392786 | 32.22° C | 61% | 1017.8 hPa | 0 mm | - | 3 W/m² | - |
| 1788392484 | 32.22° C | 60% | 1017.5 hPa | 0 mm | - | 3 W/m² | - |
| 1788392179 | 32.78° C | 59% | 1017.6 hPa | 0 mm | - | 5 W/m² | - |
| 1788391873 | 32.78° C | 58% | 1017.8 hPa | 0 mm | - | 7 W/m² | - |
| 1788391568 | 32.78° C | 58% | 1017.8 hPa | 0 mm | - | 9 W/m² | - |
| 1788391262 | 33.33° C | 57% | 1017.8 hPa | 0 mm | - | 12 W/m² | - |
| 1788390961 | 33.33° C | 56% | 1017.6 hPa | 0 mm | - | 14 W/m² | - |
| 1788390656 | 33.89° C | 56% | 1017.6 hPa | 0 mm | - | 19 W/m² | - |
| 1788390351 | 33.89° C | 55% | 1017.7 hPa | 0 mm | - | 24 W/m² | - |
| 1788390050 | 33.89° C | 54% | 1017.6 hPa | 0 mm | - | 29 W/m² | - |
| 1788389746 | 34.44° C | 55% | 1017.4 hPa | 0 mm | - | 32 W/m² | - |
| 1788389444 | 34.44° C | 54% | 1017.3 hPa | 0 mm | - | 32 W/m² | - |
| 1788389143 | 34.44° C | 53% | 1017.5 hPa | 0 mm | - | 39 W/m² | - |
| 1788388839 | 35° C | 53% | 1017.7 hPa | 0 mm | - | 41 W/m² | - |
| 1788388535 | 35° C | 52% | 1017.4 hPa | 0 mm | - | 50 W/m² | - |
| 1788388234 | 35° C | 52% | 1017.4 hPa | 0 mm | - | 54 W/m² | - |
| 1788387933 | 35.56° C | 51% | 1017.7 hPa | 0 mm | - | 56 W/m² | - |
| 1788387633 | 35.56° C | 50% | 1017.7 hPa | 0 mm | - | 61 W/m² | - |
| 1788387333 | 35.56° C | 49% | 1017.5 hPa | 0 mm | - | 179 W/m² | - |
| 1788387028 | 36.11° C | 50% | 1017.7 hPa | 0 mm | - | 212 W/m² | - |
| 1788386723 | 35.56° C | 49% | 1017.7 hPa | 0 mm | - | 223 W/m² | - |
| 1788386417 | 36.11° C | 49% | 1017.7 hPa | 0 mm | - | 248 W/m² | - |
| 1788386114 | 36.11° C | 48% | 1017.7 hPa | 0 mm | - | 265 W/m² | - |
* Rain latest hour (hover to see other rain measurements)
** Current wind speed in m/s (hover to see current wind gust speed)